This is the latest recevied weather packets stored in our database for station/object N4HAC. If no packets are shown the sender has not sent any weather packets the latest 10 day(s).
| Time | Temp. | Humidity | Pressure | Rain* | Wind** | Luminosity | Snow |
|---|---|---|---|---|---|---|---|
| 1777287392 | 4.44° C | 99% | 1018.2 hPa | 0 mm | - | 42 W/m² | - |
| 1777287087 | 3.89° C | 99% | 1018.2 hPa | 0 mm | - | 33 W/m² | - |
| 1777286785 | 3.33° C | 99% | 1017.9 hPa | 0 mm | - | 26 W/m² | - |
| 1777286483 | 3.33° C | 99% | 1017.7 hPa | 0 mm | - | 20 W/m² | - |
| 1777286180 | 2.78° C | 99% | 1017.8 hPa | 0 mm | - | 15 W/m² | - |
| 1777285878 | 2.78° C | 99% | 1017.8 hPa | 0 mm | - | 11 W/m² | - |
| 1777285574 | 2.78° C | 99% | 1017.6 hPa | 0 mm | - | 7 W/m² | - |
| 1777285272 | 3.33° C | 99% | 1017.6 hPa | 0 mm | - | 4 W/m² | - |
| 1777284969 | 3.33° C | 99% | 1017.5 hPa | 0 mm | - | 2 W/m² | - |
| 1777284665 | 2.78° C | 99% | 1017.4 hPa | 0 mm | - | 1 W/m² | - |
| 1777284362 | 3.33° C | 99% | 1017.9 hPa | 0 mm | - | 0 W/m² | - |
| 1777284059 | 3.33° C | 99% | 1017.4 hPa | 0 mm | - | 0 W/m² | - |
| 1777283756 | 3.33° C | 99% | 1017.4 hPa | 0 mm | - | 0 W/m² | - |
| 1777283454 | 3.33° C | 99% | 1017.4 hPa | 0 mm | - | 0 W/m² | - |
| 1777283153 | 3.89° C | 99% | 1017.4 hPa | 0 mm | - | 0 W/m² | - |
| 1777282850 | 3.89° C | 99% | 1017.4 hPa | 0 mm | - | 0 W/m² | - |
| 1777282544 | 4.44° C | 99% | 1017.4 hPa | 0 mm | - | 0 W/m² | - |
| 1777282242 | 4.44° C | 99% | 1017.4 hPa | 0 mm | - | 0 W/m² | - |
| 1777281939 | 4.44° C | 99% | 1017.5 hPa | 0 mm | - | 0 W/m² | - |
| 1777281636 | 4.44° C | 99% | 1017.3 hPa | 0 mm | - | 0 W/m² | - |
| 1777281333 | 4.44° C | 99% | 1017.5 hPa | 0 mm | - | 0 W/m² | - |
| 1777281030 | 4.44° C | 99% | 1017.4 hPa | 0 mm | - | 0 W/m² | - |
| 1777280727 | 4.44° C | 99% | 1017.3 hPa | 0 mm | - | 0 W/m² | - |
| 1777280424 | 4.44° C | 99% | 1017.3 hPa | 0 mm | - | 0 W/m² | - |
| 1777280120 | 4.44° C | 99% | 1017.5 hPa | 0 mm | - | 0 W/m² | - |
* Rain latest hour (hover to see other rain measurements)
** Current wind speed in m/s (hover to see current wind gust speed)